Regional Weather Roundup
Issued by NWS Mobile, AL

Home | Current Version | Previous Version | Text Only | Print | Product List | Glossary On
Versions: 1 2 3 4 5 6 7 8 9 10 11 12 13 14 15 16 17 18 19 20 21 22 23 24 25 26 27
000
ASUS44 KMOB 280313
RWRMOB
REGIONAL WEATHER ROUNDUP
NATIONAL WEATHER SERVICE MOBILE AL
1000 PM CDT FRI MAY 27 2022

NOTE: "FAIR" INDICATES FEW OR NO CLOUDS BELOW 12,000 FEET WITH NO
      SIGNIFICANT WEATHER AND/OR OBSTRUCTIONS TO VISIBILITY.

  * THESE STATIONS ARE PART OF THE UNIVERSITY OF SOUTH ALABAMA
    MESONET AND ARE NOT UNDER NWS OR FAA QUALITY CONTROL.

ALZ061>064-280400-
COASTAL ALABAMA

CITY           SKY/WX    TMP DP  RH WIND       PRES   REMARKS
MOBILE REG APT CLEAR     69  59  70 NW3       29.93R
BROOKLEY FIELD CLEAR     72  57  59 NW3       29.93R
USA CAMPUS*    NOT AVBL
DOG RIVER*     NOT AVBL


CITY           SKY/WX    TMP DP  RH WIND       PRES   REMARKS
GULF SHORES    CLEAR     70  68  94 CALM      29.91R

$$

ALZ051>060-280400-
INTERIOR SOUTHWEST AND SOUTH CENTRAL ALABAMA

CITY           SKY/WX    TMP DP  RH WIND       PRES   REMARKS
GREENVILLE     CLEAR     67  61  81 N3        29.93R
EVERGREEN      CLEAR     67  63  87 CALM      29.93R
ATMORE*          N/A     70  64  83 CALM      29.94R
ANDALUSIA/OPP  NOT AVBL
ANDALUSIA*     NOT AVBL
FLORALA APT    CLEAR     69  60  73 CALM      29.94R
FLORALA*       NOT AVBL

$$

FLZ001>006-280400-
WESTERN FLORIDA PANHANDLE

CITY           SKY/WX    TMP DP  RH WIND       PRES   REMARKS
PENSACOLA      CLEAR     79  59  50 NW3       29.91R
NAS PENSACOLA  CLEAR     69  63  81 CALM      29.91R
MILTON         NOT AVBL
WHTNG S FIELD  PTCLDY    68  62  81 NW3       29.92R


CITY           SKY/WX    TMP DP  RH WIND       PRES   REMARKS
JAY*           NOT AVBL
DUKE FIELD     CLEAR     67  61  80 CALM      29.91R
CRESTVIEW      CLEAR     68  61  78 CALM      29.92R
VALPARAISO     CLEAR     74  62  66 CALM      29.89R
DESTIN         CLEAR     78  65  63 CALM      29.91R

$$

MSZ076-079-280400-
INTERIOR SOUTHEAST MISSISSIPPI

CITY           SKY/WX    TMP DP  RH WIND       PRES   REMARKS
LEAKESVILLE*   NOT AVBL
AGRICOLA*        N/A     72  55  56 CALM      29.93

$$

MARINE OBSERVATIONS

STATION/POSITION TIME  TEMP    WIND        PRES    WAVE
                       AIR SEA DIR/SP/G            HT/PER
                 (UTC) (F)     (DEG/KT/KT) (MB)    (FT/S)
PETIT BOIS ISLND 0224          350/ 11/ 13 1013.3
E DAUPHIN ISLAND NOT AVBL
USCG MOBILE BAY  0224   78 80  340/  3/  5 1012.9
STATE DOCKS      0224   78 80              1011.6
WEEKS BAY        0145   70                 1013.0S
FORT MORGAN      0224   81     340/  4/  5 1012.7
12 S ORANGE BCH  0250   80     300/  6/  8   N/A     3/ 7
PENSACOLA BAY    0224   79 80  320/  3/  4 1012.8
64 S DAUPHIN ISL 0250   77     210/  4/  8   N/A     3/ 5

$$

SELECTED LOCATIONS ACROSS THE REGION

CITY           SKY/WX    TMP DP  RH WIND       PRES   REMARKS
NEW ORLEANS    CLEAR     80  59  48 N5        29.93R
GULFPORT       CLEAR     72  60  66 NW3       29.92R
PASCAGOULA AP  CLEAR     67  65  93 CALM      29.92R
PASCAGOULA*    NOT AVBL
HATTIESBURG    CLEAR     69  60  73 CALM      29.95R
LAUREL         CLEAR     69  61  75 NW5       29.97R
MERIDIAN       CLEAR     67  61  81 CALM      29.96R
JACKSON        CLEAR     65  60  84 CALM      29.96R
MONTGOMERY     CLEAR     70  60  70 NW5       29.93R
TROY           CLEAR     69  61  75 NW3       29.93R
ASHFORD*       NOT AVBL
DOTHAN         CLEAR     73  65  75 N3        29.95R
PANAMA CITY    CLEAR     73  68  84 SW5       29.89R

$$




USA.gov is the U.S. government's official web portal to all federal, state and local government web resources and services.